Location: Stanford
(52.2833°N, 2.4333°W)
Time: 10:29:05
(UTC+00:00)

Daily predictions for brighter satellites

Satellite Brightness Start Highest point End
(mag) Time Altitude Azimuth Time Altitude Azimuth Time Altitude Azimuth
Cosmos 1674 3.5 17:12:44 10° SSW 17:16:30 56° WNW 17:20:19 10° N
H-2A R/B 3.2 17:13:51 10° E 17:17:29 20° NE 17:21:13 10° N
Cosmos 1833 Rocket 4.1 17:14:29 10° NNW 17:18:29 19° NNE 17:22:27 10° ENE
USA 234 3.5 17:12:18 10° ENE 17:18:44 61° N 17:25:11 10° W
Cosmos 1634 Rocket 4.1 17:14:51 10° N 17:21:09 90° W 17:27:26 10° S
ATLAS 3B R/B 4.3 17:15:26 10° NW 17:21:52 42° WSW 17:28:31 10° S
CZ-4C R/B 2.8 17:19:58 10° NNE 17:23:06 59° ESE 17:26:13 10° S
Okean O Rocket 1.6 17:20:02 10° SSE 17:24:27 68° ENE 17:28:52 10° N
Cosmos 2082 Rocket 3.8 17:20:59 10° NNW 17:24:29 16° NNE 17:28:00 10° ENE
Okean-O 3.9 17:22:10 10° ESE 17:25:28 21° ENE 17:28:47 10° N
CZ-2C R/B 3.7 17:22:03 10° SE 17:26:59 37° ENE 17:32:08 10° N
YAOGAN 6 3.8 17:24:14 10° S 17:27:41 47° W 17:31:13 10° NNW
Cosmos 1606 Rocket 3.5 17:24:19 10° N 17:28:43 75° ENE 17:33:09 10° SSE
H-2A R/B 2.4 17:25:19 10° NNE 17:29:41 50° E 17:33:55 10° S
Meteor 1-24 Rocket 3.7 17:24:31 10° S 17:29:43 58° E 17:34:56 10° NNE
Cosmos 2228 3.0 17:27:36 10° N 17:31:54 87° E 17:36:11 10° S
Aureole 2 Rocket 3.8 17:29:57 10° SE 17:32:00 17° ESE 17:33:41 12° ENE
Cosmos 1626 2.4 17:30:01 10° SSW 17:33:42 72° WNW 17:37:24 10° N
USA-17 4.4 17:31:36 10° SW 17:35:04 71° NW 17:38:02 10° NE
YAOGAN 1 3.7 17:31:51 10° ESE 17:35:15 23° ENE 17:38:41 10° N
Cosmos 1892 Rocket 4.0 17:31:28 10° SSE 17:35:27 38° E 17:39:29 10° NNE
Lacrosse 5 2.0 17:30:38 10° WNW 17:35:43 82° SSW 17:40:46 10° SE
NOSS 7 (H) 4.4 17:34:42 10° WSW 17:37:49 61° NW 17:40:35 11° NE
Cosmos 2227 Rocket 3.9 17:35:10 10° W 17:39:52 26° NW 17:44:35 10° NNE
Cosmos 2227 4.3 17:34:24 10° SSW 17:40:04 86° WNW 17:45:49 10° NNE
Cosmos 1844 Rocket 3.6 17:37:34 10° SSE 17:42:22 29° ESE 17:47:03 10° NE
Cosmos 1939 Rocket 2.9 17:38:50 10° SSE 17:42:52 59° ENE 17:46:54 10° N
Meteor 2-10 Rocket 3.6 17:37:29 10° N 17:43:01 63° ENE 17:48:17 10° SSE
Cosmos 1538 Rocket 3.9 17:38:19 10° NNW 17:43:33 85° ENE 17:48:43 10° SSE
Cosmos 1315 Rocket 3.7 17:41:08 10° NNW 17:45:02 54° W 17:48:57 10° S
ISS -1.8 17:42:42 10° S 17:45:05 18° SE 17:47:08 12° ESE
ADEOS Rocket 4.0 17:39:31 10° N 17:45:17 43° WNW 17:50:36 10° SW
SJ 16-02 2.4 17:43:26 10° SSE 17:47:00 25° E 17:49:58 13° NE
Cosmos 1777 Rocket 4.1 17:42:31 10° S 17:47:40 57° ESE 17:52:52 10° NNE
SKYMED 2 4.3 17:44:53 10° NNE 17:48:51 33° E 17:52:48 10° SSE
Landsat 5 3.6 17:46:42 10° N 17:50:39 71° WNW 17:54:29 10° SSW
Feng Yun 1-1 Rocket 4.2 17:49:04 10° SSE 17:54:28 70° ENE 18:00:03 10° NNW
SMAP 4.1 17:52:04 10° S 17:56:35 50° W 18:01:09 10° NNW
COSMOS 2455 3.0 17:51:27 10° SSW 17:57:19 55° ESE 18:02:43 12° NE
CZ-4 R/B 1.8 17:55:37 10° SE 17:59:23 38° ENE 18:03:07 10° N
NOSS 3-1 (C) 4.0 17:52:32 10° NW 17:59:30 62° NE 18:07:46 10° ESE
CZ-4B R/B 4.0 17:54:04 10° S 17:59:33 58° WSW 18:05:09 10° NNW
YAOGAN 3 4.5 17:57:42 10° SSE 18:02:03 77° ENE 18:06:26 10° NNW
Cosmos 2297 Rocket 4.2 18:00:27 10° WNW 18:04:22 19° NNW 18:08:18 10° NNE
Cosmos 2058 Rocket 3.1 18:00:16 10° N 18:04:48 85° E 18:09:20 10° S
Aureole 3 3.1 18:01:54 10° N 18:05:22 45° ENE 18:08:23 10° SSE
ATLAS 5 CENTAUR R/B 2.0 18:02:46 10° WSW 18:06:53 59° NW 18:10:44 15° NE
CSL-04 Rocket 4.3 18:02:17 10° SE 18:07:08 35° ENE 18:12:04 10° N
Nadezhda 4 Rocket 4.1 18:01:14 10° SSE 18:07:13 52° E 18:13:11 10° NNE
CZ-2D R/B 3.1 18:07:19 10° SSE 18:11:10 78° ENE 18:15:01 10° N
CZ-4B R/B 1.3 18:14:17 11° NNE 18:17:30 67° ESE 18:20:48 10° S
USA 229 DEB 3.9 18:10:35 10° NW 18:17:39 60° NE 18:24:08 14° ESE
USA 229 3.9 18:10:42 10° NW 18:17:44 60° NE 18:24:09 15° ESE
CZ-4C R/B 3.3 18:16:24 10° W 18:21:35 40° NNW 18:26:31 16° NE
NOSS 3-4 (A) 4.5 18:17:30 10° W 18:23:09 38° NNW 18:27:57 16° NE
NOSS 3-4 (C) 4.5 18:17:38 10° W 18:23:18 38° NNW 18:28:06 16° NE
CZ-4 R/B 4.4 18:20:41 10° SSE 18:24:49 87° WSW 18:29:01 10° NNW
Okean 1-7 Rocket 3.5 18:20:40 10° S 18:25:13 77° E 18:29:49 10° NNE
Cosmos 1626 Rocket 3.8 18:22:23 10° SSE 18:26:34 45° E 18:30:05 14° NNE
Cosmos 1455 2.1 18:22:44 10° N 18:26:35 88° E 18:30:25 10° S
CREW DRAGON DEMO-1 DEB 4.3 18:24:36 10° W 18:27:13 31° SSW 18:28:46 19° SSE
Cosmos 2344 4.2 18:21:54 10° NW 18:30:34 70° NE 18:42:30 10° ESE
SeaSat 1 4.3 18:28:09 10° NNE 18:32:05 24° NW 18:35:59 10° W
Cosmos 1340 4.3 18:28:56 10° SSE 18:30:23 19° SE 18:30:23 19° SE
Meteor 2-1 Rocket 4.2 18:27:05 10° NNW 18:32:42 85° W 18:38:13 10° S
Cosmos 2263 Rocket 3.3 18:27:21 10° WSW 18:32:43 42° NW 18:38:06 10° NNE
NOSS 3-1 (A) 4.0 18:26:15 10° NW 18:33:16 63° NE 18:39:24 19° ESE
Cosmos 158 Rocket 4.2 18:29:06 10° NNW 18:34:26 76° WSW 18:39:49 10° SSE
Ariane Rocket 4.3 18:35:27 22° NE 18:35:27 22° NE 18:38:27 10° N
ERS-2 2.2 18:33:32 35° NE 18:34:46 53° ESE 18:38:19 10° S
APEX 4.5 18:28:24 10° SSW 18:35:21 83° ESE 18:40:11 17° NE
COSMO-SKYMED 1 2.5 18:32:45 10° NNE 18:37:08 89° WNW 18:41:29 10° SSW
SJ-11-01 4.2 18:33:11 10° SSE 18:37:50 68° ENE 18:42:30 10° N
Cosmos 1553 Rocket 4.4 18:33:56 10° N 18:39:59 41° ENE 18:45:56 10° SE
ATLAS 2AS CENTAUR R/B 3.8 18:33:19 10° W 18:40:51 44° NNW 18:46:13 18° NE
ARGOS 3.1 18:37:02 10° SSE 18:42:19 61° ENE 18:47:38 10° N
Cosmos 2026 Rocket 4.1 18:38:02 10° SSE 18:43:50 47° E 18:49:45 10° NNE
MOS 1 Rocket 2.9 18:40:35 10° NNE 18:44:57 87° ESE 18:49:14 10° SSW
Cosmos 923 Rocket 4.3 18:39:43 10° NNW 18:45:03 70° WSW 18:50:20 10° SSE
IRS-1C Rocket 4.5 18:40:27 10° S 18:45:40 65° WSW 18:50:56 10° NNW
Helios 1A Rocket 2.8 18:44:02 10° SSE 18:48:11 80° ENE 18:52:22 10° NNW
CZ-2C R/B 3.4 18:48:59 33° ESE 18:48:59 33° ESE 18:53:26 10° SSE
X-37B 2.6 18:46:23 10° SW 18:48:34 19° S 18:48:34 19° S
Cosmos 1703 3.1 18:45:27 10° S 18:49:16 60° E 18:49:40 56° ENE
COSMOS 2406 3.3 18:45:42 10° NNW 18:51:26 58° NE 18:54:02 32° ESE
Cosmos 1680 Rocket 3.6 18:46:25 10° NNW 18:51:42 78° WSW 18:56:54 10° SSE
Cosmos 1898 Rocket 3.8 18:48:17 10° S 18:53:15 44° ESE 18:53:51 42° E
Cosmos 44 3.7 18:49:48 10° S 18:54:19 41° ESE 18:54:31 41° ESE
Meteor 2-15 4.4 18:48:35 10° N 18:54:41 58° ENE 19:00:44 10° SSE
Meteor 2-8 Rocket 4.3 18:48:41 10° N 18:54:49 78° E 19:00:56 10° SSE
H-2A R/B 2.0 18:51:19 10° SSE 18:56:20 81° WSW 19:01:32 10° NNW
CSL-04 Debris 4.0 18:53:03 10° SSE 18:58:26 81° ENE 19:03:52 10° NNW
Iridium 4 Rocket 3.5 18:52:49 10° N 18:58:34 75° E 19:03:51 10° S
USA 234 3.3 18:58:37 36° E 19:01:26 67° NNE 19:07:56 10° WNW
Okean-O 3.1 18:57:11 10° S 19:01:34 62° WSW 19:06:00 10° NNW
S3M 4.3 18:57:12 10° N 19:02:58 41° ENE 19:03:03 41° ENE
Cosmos 1833 Rocket 2.6 18:58:00 10° NNW 19:03:36 61° NE 19:05:06 45° ESE
Aureole 2 Rocket 3.4 19:01:49 10° SW 19:04:42 36° WNW 19:05:06 35° NW
Cosmos 2098 Rocket 4.3 18:58:02 10° SSE 19:05:08 59° E 19:12:20 10° NNE
H-2A R/B 4.3 19:01:44 10° N 19:05:23 25° WNW 19:08:58 10° WSW
CZ-2C R/B 4.3 19:01:37 10° S 19:06:45 45° W 19:12:11 10° NNW
Cosmos 1602 Rocket 3.4 19:03:07 10° S 19:07:28 83° E 19:08:44 46° NNE
Cosmos-2242 3.7 19:03:13 10° N 19:06:06 39° NNE 19:06:06 39° NNE
SL-08 RB Rocket 3.5 19:07:55 57° SE 19:08:42 71° ENE 19:13:12 10° N
Cosmos 2195 Rocket 4.4 19:03:37 10° S 19:09:57 81° E 19:16:19 10° NNE
Cosmos 2082 Rocket 2.6 19:04:41 10° NNW 19:10:10 43° NE 19:10:13 43° NE
Cosmos 1844 3.6 19:04:47 10° SSW 19:10:29 88° WNW 19:13:19 32° NNE
YAOGAN 1 3.3 19:06:51 10° S 19:11:05 52° W 19:15:20 10° NNW
Cosmos 1818 3.6 19:07:04 10° SW 19:12:31 82° NW 19:14:21 44° NE
SAR-Lupe-4 3.9 19:15:15 64° WSW 19:15:15 64° WSW 19:18:31 10° SSW
Lacrosse 5 4.0 19:14:09 10° WNW 19:18:09 24° SW 19:22:08 10° S
ISS -2.1 19:18:05 10° WSW 19:20:06 31° SW 19:20:06 31° SW
Cosmos 1812 Rocket 4.2 19:18:16 10° NNW 19:22:35 54° W 19:26:50 10° S
Cosmos 1428 Rocket 4.4 19:16:46 10° S 19:23:03 83° E 19:29:25 10° NNE
Cosmos 1627 Rocket 4.4 19:17:21 10° S 19:23:34 88° E 19:29:54 10° N
Meteor 2-15 Rocket 4.3 19:18:43 10° N 19:24:54 75° ENE 19:28:39 25° SSE
Cosmos 1937 Rocket 3.9 19:20:03 10° S 19:24:03 47° SSE 19:24:03 47° SSE
SJ 16-02 2.2 19:21:05 10° SW 19:25:20 47° WNW 19:26:59 31° N
Cosmos 1844 Rocket 3.1 19:20:19 10° SW 19:25:55 61° NW 19:28:45 29° NNE
CZ-4 R/B 3.6 19:31:05 10° SSW 19:34:31 26° W 19:37:56 10° NW
Cosmos 1092 Rocket 4.3 19:31:04 10° SSW 19:37:12 64° WNW 19:43:20 10° N
Cosmos 2278 Rocket 3.9 19:34:51 10° S 19:36:27 19° S 19:36:27 19° S
Meteor 1-11 4.1 19:35:32 10° S 19:41:15 84° E 19:41:17 84° E
COSMOS 2455 3.8 19:37:44 10° WSW 19:43:29 43° NW 19:45:53 30° N
USA 281 3.7 19:48:54 43° NNE 19:48:54 43° NNE 19:54:03 10° NNW
IRS-1A Rocket 4.4 19:52:11 72° N 19:52:11 72° N 19:57:30 10° NNW
ATLAS 5 CENTAUR R/B 3.4 19:48:40 10° WNW 19:52:16 25° NNW 19:52:16 25° NNW
USA 267 4.4 20:10:21 29° S 20:10:21 29° S 20:13:42 10° SSW
USA 229 DEB 4.5 20:01:42 10° NW 20:08:42 52° SW 20:11:38 35° S
USA 229 4.5 20:01:48 10° NW 20:08:48 52° SW 20:11:40 35° S
CZ-4C R/B 3.7 20:06:19 10° WNW 20:11:42 32° N 20:11:42 32° N
Cosmos 2263 Rocket 4.5 20:14:53 10° WNW 20:18:15 16° NNW 20:20:00 14° N
CZ-2C R/B 3.9 20:30:28 38° WSW 20:30:28 38° WSW 20:34:15 10° SW
ATLAS 2AS CENTAUR R/B 3.9 20:26:34 10° WNW 20:33:39 35° N 20:33:40 35° N
USA 234 3.8 20:45:57 54° W 20:45:57 54° W 20:51:03 10° WNW
Cosmos 1833 Rocket 4.3 20:42:26 10° NW 20:46:51 29° W 20:46:51 29° W
Cosmos 2082 Rocket 3.8 20:48:55 10° NW 20:52:06 30° WNW 20:52:06 30° WNW
